This is the latest recevied weather packets stored in our database for station/object AJ5AG. If no packets are shown the sender has not sent any weather packets the latest 10 day(s).
| Time | Temp. | Humidity | Pressure | Rain* | Wind** | Luminosity | Snow |
|---|---|---|---|---|---|---|---|
| 1777994317 | 24.44° C | 85% | 1011.9 hPa | 0 mm | - | 93 W/m² | - |
| 1777994014 | 24.44° C | 85% | 1011.8 hPa | 0 mm | - | 67 W/m² | - |
| 1777993712 | 24.44° C | 85% | 1011.6 hPa | 0 mm | - | 88 W/m² | - |
| 1777993409 | 24.44° C | 85% | 1011.6 hPa | 0 mm | - | 117 W/m² | - |
| 1777993109 | 24.44° C | 85% | 1011.7 hPa | 0 mm | - | 116 W/m² | - |
| 1777992807 | 24.44° C | 85% | 1011.6 hPa | 0 mm | - | 99 W/m² | - |
| 1777992505 | 24.44° C | 86% | 1011.6 hPa | 0 mm | - | 134 W/m² | - |
| 1777992203 | 23.89° C | 86% | 1011.8 hPa | 0 mm | - | 183 W/m² | - |
| 1777991899 | 23.89° C | 87% | 1011.7 hPa | 0 mm | - | 145 W/m² | - |
| 1777991598 | 23.89° C | 87% | 1011.9 hPa | 0 mm | - | 79 W/m² | - |
| 1777991294 | 23.89° C | 87% | 1011.9 hPa | 0 mm | - | 89 W/m² | - |
| 1777990992 | 23.33° C | 87% | 1011.6 hPa | 0 mm | - | 117 W/m² | - |
| 1777990689 | 23.33° C | 88% | 1011.6 hPa | 0 mm | - | 88 W/m² | - |
| 1777990386 | 23.33° C | 88% | 1011.8 hPa | 0 mm | - | 83 W/m² | - |
| 1777989778 | 22.78° C | 88% | 1011.4 hPa | 0 mm | - | 57 W/m² | - |
| 1777989476 | 22.78° C | 88% | 1011.4 hPa | 0 mm | - | 55 W/m² | - |
| 1777989172 | 22.78° C | 88% | 1011.3 hPa | 0 mm | - | 58 W/m² | - |
| 1777988868 | 22.78° C | 89% | 1011.4 hPa | 0 mm | - | 46 W/m² | - |
| 1777988565 | 22.78° C | 89% | 1011.3 hPa | 0 mm | - | 39 W/m² | - |
| 1777988262 | 22.78° C | 89% | 1011.3 hPa | 0 mm | - | 42 W/m² | - |
| 1777987959 | 22.78° C | 89% | 1011.4 hPa | 0 mm | - | 46 W/m² | - |
| 1777987654 | 22.78° C | 89% | 1011.4 hPa | 0 mm | - | 40 W/m² | - |
| 1777987352 | 22.78° C | 89% | 1011.3 hPa | 0 mm | - | 54 W/m² | - |
| 1777987049 | 22.22° C | 89% | 1011.5 hPa | 0 mm | - | 31 W/m² | - |
| 1777986746 | 22.22° C | 89% | 1011.6 hPa | 0 mm | - | 22 W/m² | - |
* Rain latest hour (hover to see other rain measurements)
** Current wind speed in m/s (hover to see current wind gust speed)